Flag for Canada Weather past 2 weeks in MD of Lunenburg, Nova Scotia, Canada

Now
44 °F

Quite cool.


Feels Like: 40 °F
Forecast: N/A
Wind: 6 mph from North

Location: McNabs Island - AUT

Current Time: Apr 26, 2015 at 8:40:15 PM

Latest Report: Apr 26, 2015 at 8:00 PM


Visibility: N/A

Pressure: 29.53 "Hg

Humidity: 63%

Dew point: 32 °F

Location of MD of LunenburgLocation

Historic Weather in MD of Lunenburg — Graph

°F

MD of Lunenburg temperature yesterday

Maximum temperature yesterday: 45 °F (at 6:00 PM)
Minimum temperature yesterday: 31 °F (at 2:00 AM)
Average temperature yesterday: 37 °F

Past Weeks' High & Low Weather Summary

 TemperatureHumidityPressure
High57 °F (Apr 15, 1:00 PM)100% (Apr 23, 8:00 AM)30.39 "Hg (Apr 23, 8:00 AM)
Low28 °F (Apr 16, 6:00 AM)31% (Apr 16, 6:00 PM)29.52 "Hg (Apr 24, 5:00 AM)
Average39 °F79%29.95 "Hg
* Reported Apr 11 7:00 PM — Apr 26 7:00 PM, MD of Lunenburg, Weather by CustomWeather, © 2015

Note: Actual official high and low records may vary slightly from our data, if they occured in-between our weather recording intervals... More about our weather records

Advertising

MD of Lunenburg weather history for previous 24 hours

 ConditionsComfort  
Time TempWeatherWind HumidityBarometerVisibility
7:00 PM
Sun, Apr 26
46 °FCool.7 mph57%29.52 "HgN/A
6:00 PM48 °FCool.7 mph50%29.52 "HgN/A
5:00 PM49 °FCool.6 mph53%29.52 "HgN/A
4:00 PM48 °FCool.8 mph58%29.54 "HgN/A
3:00 PM45 °FQuite cool.6 mph75%29.55 "HgN/A
2:00 PM47 °FCool.7 mph56%29.56 "HgN/A
1:00 PM49 °FCool.6 mph51%29.57 "HgN/A
12:00 PM46 °FCool.6 mph58%29.57 "HgN/A
11:00 AM45 °FQuite cool.6 mph65%29.58 "HgN/A
10:00 AM42 °FQuite cool.7 mph76%29.58 "HgN/A
9:00 AM41 °FQuite cool.3 mph74%29.59 "HgN/A
8:00 AM36 °FChilly.5 mph82%29.61 "HgN/A
7:00 AM35 °FChilly.6 mph88%29.60 "HgN/A
6:00 AM31 °FChilly.6 mph94%29.59 "HgN/A
5:00 AM34 °FChilly.7 mph88%29.59 "HgN/A
4:00 AM34 °FChilly.6 mph86%29.60 "HgN/A
3:00 AM35 °FChilly.3 mph94%29.60 "HgN/A
2:00 AM37 °FChilly.6 mph78%29.61 "HgN/A
1:00 AM38 °FChilly.6 mph77%29.61 "HgN/A
12:00 AM39 °FChilly.5 mph74%29.62 "HgN/A
11:00 PM
Sat, Apr 25
39 °FChilly.2 mph84%29.63 "HgN/A
10:00 PM36 °FChilly.2 mph82%29.63 "HgN/A
9:00 PM37 °FChilly.2 mph88%29.62 "HgN/A
8:00 PM41 °FQuite cool.6 mph77%29.62 "HgN/A
Weather by CustomWeather, © 2015

See weather overviewHow to use our weather pages